Weather History for PAKF - February, 2013

Change the Weather History Date:

Thursday, February 7, 2013

  Actual Average (PACD) Record (PACD)
Temperature  
Mean Temperature 36 °F 29 °F  
Max Temperature 39 °F 33 °F 45 °F (1957)
Min Temperature 32 °F 24 °F 2 °F (2008)
Degree Days  
Heating Degree Days 30 36  
Month to date heating degree days 257  
Since 1 July heating degree days 5473  
Cooling Degree Days 0    
Month to date cooling degree days  
Year to date cooling degree days  
Moisture  
Dew Point 33 °F    
Average Humidity 91    
Maximum Humidity 100    
Minimum Humidity 70    
Precipitation  
Precipitation 0.41 in 0.10 in 0.54 in (1949)
Month to date precipitation 0.74  
Year to date precipitation 3.90  
Snow  
Snow 0.00 in 0.40 in 2.30 in (1996)
Month to date snowfall 3.2  
Since 1 July snowfall 42.5  
Snow Depth -    
Sea Level Pressure  
Sea Level Pressure 29.25 in    
Wind  
Wind Speed 13 mph (SSE)    
Max Wind Speed 21 mph    
Max Gust Speed 33 mph    
Visibility 8 miles    
Events Rain , Snow    
T = Trace of Precipitation, MM = Missing Value Source: NWS Daily Summary

Daily Weather History Graph

Daily Weather History Graph

Search for Another Location

Airport or City:

Trip Planner

Search our weather history database for the weather conditions in past years. The results will help you decide how hot, cold, wet, or windy it might be!

Date:

Astronomy

Feb. 07, 2013 Rise Set
Actual Time 8:31 AM HST 5:45 PM HST
Civil Twilight 7:52 AM HST 6:23 PM HST
Nautical Twilight 7:09 AM HST 7:06 PM HST
Astronomical Twilight 6:28 AM HST 7:48 PM HST
Moon 6:36 AM HST (2/7) 3:10 PM HST (2/7)
Length of Visible Light 10h 31m
Length of Day
9h 13m
Waning Crescent, 8% of the Moon is Illuminated
Feb 7
Waning Crescent
Feb 9
New
Feb 17
First Quarter
Feb 25
Full
Mar 4
Last Quarter

Hourly Weather History & Observations

Time (HST) Temp. Windchill Dew Point Humidity Pressure Visibility Wind Dir Wind Speed Gust Speed Precip Events Conditions
12:01 AM 39.0 °F 29.3 °F 32.0 °F 76% 29.42 in 10.0 mi South 19.6 mph 29.9 mph N/A   Scattered Clouds
1:01 AM 37.4 °F 28.9 °F 33.8 °F 87% 29.14 in 8.0 mi SE 13.8 mph 23.0 mph 0.01 in Rain Light Rain
1:30 AM 35.1 °F 25.2 °F 33.1 °F 92% 29.41 in 5.0 mi SSE 16.1 mph 25.3 mph 0.04 in Snow Light Snow
1:37 AM 35.6 °F 25.9 °F 33.8 °F 93% 29.13 in 6.0 mi SSE 16.1 mph 23.0 mph 0.01 in Snow Light Snow
1:57 AM 35.6 °F 26.6 °F 33.8 °F 93% 29.12 in 4.0 mi SSE 13.8 mph 20.7 mph 0.03 in Snow Light Snow
2:01 AM 35.1 °F 25.2 °F 33.1 °F 92% 29.40 in 4.0 mi SSE 16.1 mph 21.9 mph 0.05 in Snow Light Snow
2:18 AM 35.6 °F 26.2 °F 33.8 °F 93% 29.12 in 5.0 mi SSE 15.0 mph 19.6 mph 0.02 in Snow Light Snow
2:31 AM 33.8 °F 26.4 °F 33.8 °F 100% 29.11 in 5.0 mi SSE 9.2 mph 17.3 mph 0.04 in Snow Light Snow
3:01 AM 35.6 °F 27.5 °F 33.8 °F 93% 29.10 in 6.0 mi SE 11.5 mph 19.6 mph 0.09 in Snow Light Snow
3:20 AM 34.0 °F 25.5 °F 33.1 °F 96% 29.37 in 10.0 mi ESE 11.5 mph 19.6 mph 0.09 in Rain Light Rain
3:28 AM 33.8 °F 24.8 °F 33.8 °F 100% 29.09 in 9.0 mi ESE 12.7 mph - 0.01 in Rain Light Rain
4:01 AM 34.0 °F 24.6 °F 33.1 °F 96% 29.37 in 7.0 mi SSE 13.8 mph 21.9 mph 0.01 in   Overcast
4:32 AM 35.6 °F 28.0 °F 33.8 °F 93% 29.08 in 8.0 mi South 10.4 mph 21.9 mph 0.00 in   Overcast
5:01 AM 35.6 °F 29.2 °F 33.8 °F 93% 29.07 in 10.0 mi SE 8.1 mph - 0.00 in Rain Light Rain
5:08 AM 35.6 °F 29.9 °F 33.8 °F 93% 29.07 in 8.0 mi SE 6.9 mph - 0.00 in Snow Light Snow
5:20 AM 33.8 °F 28.6 °F 33.8 °F 100% 29.07 in 2.5 mi SSE 5.8 mph - 0.02 in Snow Light Snow
5:36 AM 33.8 °F 26.4 °F 33.8 °F 100% 29.06 in 2.5 mi ESE 9.2 mph - 0.03 in Snow Light Snow
5:44 AM 33.8 °F 25.3 °F 33.8 °F 100% 29.06 in 4.0 mi East 11.5 mph - 0.03 in Snow Light Snow
5:53 AM 33.8 °F 28.6 °F 33.8 °F 100% 29.06 in 5.0 mi Variable 5.8 mph - 0.03 in Snow Light Snow
5:56 AM 33.8 °F 28.6 °F 33.8 °F 100% 29.06 in 7.0 mi SSE 5.8 mph - 0.04 in Snow Light Snow
6:01 AM 33.8 °F 27.7 °F 33.8 °F 100% 29.06 in 8.0 mi SSE 6.9 mph - 0.05 in Snow Light Snow
6:24 AM 33.8 °F 27.0 °F 33.8 °F 100% 29.07 in 10.0 mi East 8.1 mph - 0.06 in Rain Light Rain
7:01 AM 33.8 °F 30.8 °F 33.8 °F 100% 29.09 in 10.0 mi ESE 3.5 mph - 0.07 in Rain Light Rain
7:08 AM 35.1 °F - 33.1 °F 92% 29.38 in 10.0 mi Calm Calm - 0.07 in   Overcast
7:43 AM 33.8 °F - 32.0 °F 93% 29.11 in 10.0 mi Calm Calm - N/A   Overcast
8:01 AM 33.1 °F - 32.0 °F 96% 29.39 in 10.0 mi Calm Calm - N/A   Mostly Cloudy
9:01 AM 32.0 °F - 30.9 °F 96% 29.41 in 10.0 mi Calm Calm - N/A   Scattered Clouds
10:01 AM 36.0 °F 26.7 °F 30.9 °F 82% 29.42 in 10.0 mi SSE 15.0 mph 21.9 mph N/A   Clear
11:01 AM 37.0 °F 28.5 °F 30.9 °F 79% 29.43 in 10.0 mi SSE 13.8 mph 19.6 mph N/A   Partly Cloudy
12:01 PM 37.9 °F 29.2 °F 30.9 °F 76% 29.44 in 10.0 mi SSE 15.0 mph 20.7 mph 0.00 in   Partly Cloudy
1:07 PM 37.0 °F 27.0 °F 33.1 °F 86% 29.43 in 10.0 mi South 18.4 mph 25.3 mph 0.01 in Rain Light Rain
1:33 PM 37.4 °F 27.2 °F 32.0 °F 81% 29.15 in 10.0 mi South 19.6 mph 29.9 mph N/A   Scattered Clouds
2:01 PM 37.9 °F 27.6 °F 32.0 °F 79% 29.43 in 10.0 mi South 20.7 mph 33.4 mph N/A   Partly Cloudy
3:01 PM 39.0 °F 29.3 °F 30.0 °F 70% 29.44 in 10.0 mi South 19.6 mph 27.6 mph N/A   Clear
3:41 PM 37.4 °F 31.4 °F 33.8 °F 87% 29.17 in 10.0 mi SSE 8.1 mph - N/A   Overcast
4:01 PM 37.9 °F 32.7 °F 34.0 °F 86% 29.44 in 10.0 mi Variable 6.9 mph - N/A   Overcast
4:51 PM 37.4 °F 28.9 °F 35.6 °F 93% 29.16 in 9.0 mi SSE 13.8 mph 23.0 mph N/A   Overcast
5:01 PM 37.9 °F 29.2 °F 35.1 °F 89% 29.44 in 9.0 mi SE 15.0 mph 26.5 mph N/A   Overcast
5:54 PM 35.6 °F 26.2 °F 33.8 °F 93% 29.16 in 7.0 mi SSE 15.0 mph 29.9 mph 0.04 in Rain Light Rain
6:01 PM 35.6 °F 25.5 °F 33.8 °F 93% 29.16 in 7.0 mi SSE 17.3 mph 31.1 mph 0.04 in Rain Light Rain
7:01 PM 37.0 °F 27.0 °F 34.0 °F 89% 29.47 in 10.0 mi SSE 18.4 mph 25.3 mph 0.06 in   Overcast
8:01 PM 37.9 °F 27.9 °F 34.0 °F 86% 29.47 in 5.0 mi SSE 19.6 mph 28.8 mph 0.07 in Rain Light Rain
9:37 PM 37.0 °F 28.1 °F 35.1 °F 93% 29.49 in 10.0 mi SSE 15.0 mph 18.4 mph 0.00 in   Overcast
9:51 PM 37.4 °F 28.9 °F 35.6 °F 93% 29.22 in 10.0 mi SE 13.8 mph 21.9 mph N/A   Overcast
10:01 PM 37.9 °F 30.0 °F 35.1 °F 89% 29.50 in 10.0 mi SSE 12.7 mph 24.2 mph N/A   Overcast
10:34 PM 39.2 °F 30.8 °F 35.6 °F 87% 29.23 in 10.0 mi SSE 15.0 mph 23.0 mph 0.01 in   Overcast
11:28 PM 37.4 °F 27.5 °F 33.8 °F 87% 29.23 in 10.0 mi SSE 18.4 mph 32.2 mph 0.01 in Rain Light Rain
11:52 PM 39.0 °F 29.3 °F 35.1 °F 86% 29.52 in 10.0 mi SSE 19.6 mph 29.9 mph 0.01 in   Overcast